Location: Greenwich
(51.4790°N, 0.0090°E)
Time: 23:47:22
(UTC+01:00)

Vanguard 1 Rocket - Visible Passes

Search period start: 16 April 2024 00:00
Search period end: 26 April 2024 00:00
Orbit: 652 x 4219 km, 34.3° (Epoch: 16 April)

Date Brightness Start Highest point End Pass type
(mag) Time Alt. Az. Time Alt. Az. Time Alt. Az.
16 Apr 10.7 02:15:25 11° SSE 02:15:25 11° SSE 02:16:02 10° SSE visible
16 Apr 9.3 22:16:52 10° SW 22:23:25 29° S 22:25:58 26° SSE visible
17 Apr 10.1 00:40:22 10° WSW 01:08:55 - SE 00:43:10 19° SW visible
17 Apr 9.3 21:06:44 10° SSW 21:11:54 23° SSE 21:17:53 14° ESE visible
17 Apr 9.6 23:29:13 10° WSW 23:35:04 27° SSW 23:35:04 27° SSW visible
18 Apr10.802:19:42SSE02:19:42SSE01:52:16WSWvisible
18 Apr 9.3 22:18:30 10° SW 22:24:39 27° S 22:26:59 25° SSE visible
19 Apr 10.2 00:42:27 10° WSW 00:44:10 15° SW 00:44:10 15° SW visible
19 Apr 9.2 21:08:11 10° SW 21:13:07 22° SSE 21:18:52 13° SE visible
19 Apr 9.7 23:31:05 10° WSW 23:36:03 23° SSW 23:36:03 23° SSW visible
20 Apr 9.4 22:20:13 10° SW 22:25:55 24° S 22:27:57 22° SSE visible
21 Apr 10.3 00:44:54 10° WSW 00:45:08 11° SW 00:45:08 11° SW visible
21 Apr 9.2 21:09:46 10° SW 21:14:22 21° S 21:19:51 12° SE visible
21 Apr 9.8 23:33:11 10° SW 23:37:02 19° SSW 23:37:02 19° SSW visible
22 Apr 9.5 22:22:06 10° SW 22:27:13 20° S 22:28:56 19° S visible
23 Apr 9.3 21:11:28 10° SW 21:15:40 19° S 21:20:51 11° SE visible
23 Apr 10.0 23:35:41 10° SW 23:38:03 14° SSW 23:38:03 14° SSW visible
24 Apr 9.6 22:24:13 10° SW 22:28:33 17° S 22:29:58 16° S visible
25 Apr 9.3 21:13:21 10° SW 21:16:59 16° S 21:21:46 10° SE visible
